Sarasota, FL

11:27 AM EST on December 14, 2019 (GMT -0500)
Sarasota-bradenton

Weather History for KSRQ - October, 2019

Change the Weather History Date:

Wednesday, October 23, 2019

  Actual Average Record
Temperature  
Mean Temperature 80 °F 75 °F  
Max Temperature 88 °F 84 °F 90 °F (1971)
Min Temperature 71 °F 66 °F 47 °F (1961)
Degree Days  
Heating Degree Days 0 0  
Month to date heating degree days 0 0  
Since 1 July heating degree days 0 0  
Cooling Degree Days 14 10  
Month to date cooling degree days 407 285  
Year to date cooling degree days 3864 3074  
Growing Degree Days 30 (Base 50)    
Moisture  
Dew Point 65 °F    
Average Humidity 63    
Maximum Humidity 85    
Minimum Humidity 48    
Precipitation  
Precipitation 0.00 in 0.08 in 1.97 in (2017)
Month to date precipitation 3.22 2.50  
Year to date precipitation 46.60 47.93  
Sea Level Pressure  
Sea Level Pressure 30.01 in    
Wind  
Wind Speed 8 mph ()    
Max Wind Speed 16 mph    
Max Gust Speed 21 mph    
Visibility 10.0 miles    
Events      
T = Trace of Precipitation, MM = Missing Value Source: Averaged Metar Reports

Daily Weather History Graph

Daily Weather History Graph

Search for Another Location

Airport or City:

Astronomy

Oct. 23, 2019 Rise Set
Actual Time 7:34 AM EDT 6:53 PM EDT
Civil Twilight 7:10 AM EDT 7:17 PM EDT
Nautical Twilight 6:43 AM EDT 7:45 PM EDT
Astronomical Twilight 6:16 AM EDT 8:12 PM EDT
Moon 2:30 AM EDT (10/23) 4:08 PM EDT (10/23)
Length of Visible Light 12h 06m
Length of Day
11h 19m
Waning Crescent, 27% of the Moon is Illuminated
Oct 23
Waning Crescent
Oct 27
New
Nov 4
First Quarter
Nov 12
Full
Nov 19
Last Quarter

Hourly Weather History & Observations

Time (EDT) Temp. Heat Index Dew Point Humidity Pressure Visibility Wind Dir Wind Speed Gust Speed Precip Events Conditions
12:53 AM 79.0 °F - 73.9 °F 84% 29.99 in 10.0 mi NNW 4.6 mph - N/A   Clear
1:53 AM 79.0 °F - 73.9 °F 84% 29.99 in 10.0 mi North 4.6 mph - N/A   Clear
2:53 AM 79.0 °F - 73.9 °F 84% 29.98 in 10.0 mi North 9.2 mph - N/A   Partly Cloudy
3:12 AM 79.0 °F - 73.0 °F 82% 29.97 in 10.0 mi North 8.1 mph - N/A   Mostly Cloudy
3:53 AM 77.0 °F - 70.0 °F 79% 29.97 in 10.0 mi NNE 10.4 mph 19.6 mph N/A   Overcast
4:14 AM 75.9 °F - 66.9 °F 74% 29.97 in 10.0 mi North 8.1 mph 19.6 mph N/A   Scattered Clouds
4:53 AM 75.0 °F - 61.0 °F 62% 29.98 in 10.0 mi NNE 9.2 mph - N/A   Clear
5:53 AM 73.0 °F - 60.1 °F 64% 29.99 in 10.0 mi NNE 9.2 mph - N/A   Clear
6:53 AM 72.0 °F - 61.0 °F 68% 30.01 in 10.0 mi North 10.4 mph - N/A   Clear
7:53 AM 71.1 °F - 59.0 °F 66% 30.02 in 10.0 mi NE 9.2 mph - N/A   Clear
8:53 AM 73.0 °F - 55.9 °F 55% 30.04 in 10.0 mi NNE 15.0 mph - N/A   Clear
9:53 AM 75.0 °F - 55.0 °F 50% 30.05 in 10.0 mi NE 11.5 mph - N/A   Clear
10:53 AM 78.1 °F - 57.9 °F 50% 30.04 in 10.0 mi NE 10.4 mph - N/A   Clear
11:53 AM 80.1 °F 81.1 °F 61.0 °F 52% 30.05 in 10.0 mi ENE 11.5 mph - N/A   Clear
12:53 PM 82.9 °F 83.7 °F 62.1 °F 49% 30.03 in 10.0 mi NE 9.2 mph - N/A   Clear
1:53 PM 84.9 °F 86.1 °F 64.0 °F 49% 30.01 in 10.0 mi NE 5.8 mph - N/A   Clear
2:53 PM 87.1 °F 89.2 °F 66.0 °F 49% 29.99 in 10.0 mi East 9.2 mph - N/A   Clear
3:53 PM 88.0 °F 90.3 °F 66.0 °F 48% 29.99 in 10.0 mi ENE 8.1 mph - N/A   Clear
4:53 PM 87.1 °F 89.2 °F 66.0 °F 49% 29.98 in 10.0 mi ENE 10.4 mph - N/A   Clear
5:53 PM 86.0 °F 88.2 °F 66.0 °F 51% 29.98 in 10.0 mi ENE 5.8 mph - N/A   Clear
6:53 PM 82.9 °F 85.4 °F 66.9 °F 58% 30.00 in 10.0 mi ENE 5.8 mph - N/A   Clear
7:53 PM 81.0 °F 83.8 °F 68.0 °F 65% 30.02 in 10.0 mi ENE 5.8 mph - N/A   Clear
8:53 PM 80.1 °F 82.7 °F 68.0 °F 67% 30.04 in 10.0 mi East 10.4 mph - N/A   Clear
9:53 PM 78.1 °F - 66.9 °F 68% 30.06 in 10.0 mi ENE 11.5 mph 20.7 mph N/A   Clear
10:53 PM 77.0 °F - 66.0 °F 69% 30.07 in 10.0 mi ENE 10.4 mph - N/A   Clear
11:53 PM 75.9 °F - 66.0 °F 71% 30.06 in 10.0 mi East 11.5 mph - N/A   Clear